Cheyenne, WY

3:56 AM MST on December 10, 2019 (GMT -0700)
Cheyenne

Weather History for KCYS - November, 2019

Change the Weather History Date:

Saturday, November 16, 2019

  Actual Average Record
Temperature  
Mean Temperature 42 °F -  
Max Temperature 55 °F 46 °F 75 °F (2016)
Min Temperature 26 °F 23 °F -20 °F (1875)
Degree Days  
Heating Degree Days 24    
Moisture  
Dew Point 26 °F    
Average Humidity 65    
Maximum Humidity 89    
Minimum Humidity 29    
Precipitation  
Precipitation 0.02 in - - ()
Sea Level Pressure  
Sea Level Pressure 30.08 in    
Wind  
Wind Speed 13 mph ()    
Max Wind Speed 24 mph    
Max Gust Speed 39 mph    
Visibility 7.1 miles    
Events Snow    
Averages and records for this station are not official NWS values.
T = Trace of Precipitation, MM = Missing Value Source: Averaged Metar Reports

Daily Weather History Graph

Daily Weather History Graph

Search for Another Location

Airport or City:

Astronomy

Nov. 16, 2019 Rise Set
Actual Time 6:48 AM MST 4:39 PM MST
Civil Twilight 6:18 AM MST 5:09 PM MST
Nautical Twilight 5:45 AM MST 5:42 PM MST
Astronomical Twilight 5:12 AM MST 6:15 PM MST
Moon 8:13 PM MST (11/16) 10:45 AM MST (11/16)
Length of Visible Light 10h 50m
Length of Day
9h 51m
Waning Gibbous, 82% of the Moon is Illuminated
Nov 16
Waning Gibbous
Nov 19
Last Quarter
Nov 26
New
Dec 3
First Quarter
Dec 11
Full

Hourly Weather History & Observations

Time (MST) Temp. Windchill Dew Point Humidity Pressure Visibility Wind Dir Wind Speed Gust Speed Precip Events Conditions
12:53 AM 46.9 °F - 19.9 °F 34% 29.88 in 10.0 mi West 12.7 mph - N/A   Clear
1:53 AM 46.0 °F 40.2 °F 19.9 °F 35% 29.88 in 10.0 mi WNW 12.7 mph - N/A   Clear
2:53 AM 50.0 °F - 19.0 °F 29% 29.86 in 10.0 mi WNW 10.4 mph - N/A   Partly Cloudy
3:53 AM 50.0 °F - 19.9 °F 31% 29.86 in 10.0 mi West 19.6 mph - N/A   Clear
4:53 AM 48.9 °F - 19.9 °F 32% 29.90 in 10.0 mi West 12.7 mph - N/A   Clear
5:53 AM 46.9 °F - 19.9 °F 34% 29.93 in 10.0 mi West 10.4 mph - N/A   Clear
7:53 AM 48.0 °F - 19.9 °F 33% 29.99 in 10.0 mi West 16.1 mph - N/A   Clear
8:53 AM 48.0 °F - 21.0 °F 34% 30.01 in 10.0 mi WNW 4.6 mph - N/A   Clear
9:53 AM 50.0 °F - 21.9 °F 33% 29.99 in 10.0 mi West 12.7 mph - N/A   Mostly Cloudy
10:53 AM 52.0 °F - 24.1 °F 34% 29.97 in 10.0 mi WNW 11.5 mph - N/A   Overcast
11:53 AM 54.0 °F - 24.1 °F 31% 29.93 in 10.0 mi WNW 16.1 mph 26.5 mph N/A   Partly Cloudy
12:53 PM 55.0 °F - 24.1 °F 30% 29.91 in 10.0 mi WNW 21.9 mph 39.1 mph N/A   Scattered Clouds
3:02 PM 35.1 °F 23.0 °F 30.0 °F 82% 30.12 in 10.0 mi North 24.2 mph 34.5 mph 0.00 in   Overcast
3:26 PM 34.0 °F 21.5 °F 30.0 °F 85% 30.14 in 1.8 mi North 24.2 mph 31.1 mph 0.00 in Snow Light Snow
3:36 PM 34.0 °F 24.2 °F 30.0 °F 85% 30.14 in 2.0 mi North 15.0 mph 28.8 mph 0.00 in Snow Light Snow
3:40 PM 34.0 °F 23.0 °F 30.0 °F 85% 30.14 in 1.2 mi North 18.4 mph 25.3 mph 0.00 in Snow Light Snow
3:44 PM 33.1 °F 21.9 °F 30.0 °F 89% 30.15 in 0.8 mi NNW 18.4 mph 29.9 mph 0.00 in Snow Light Snow
3:53 PM 33.1 °F 21.2 °F 30.0 °F 89% 30.10 in 0.8 mi North 20.7 mph 31.1 mph 0.00 in Snow Light Snow
4:05 PM 33.1 °F 21.5 °F 30.0 °F 89% 30.16 in 0.8 mi North 19.6 mph 26.5 mph 0.00 in Snow Light Snow
4:32 PM 33.1 °F 22.6 °F 30.0 °F 89% 30.16 in 1.0 mi North 16.1 mph 26.5 mph 0.02 in Snow Light Snow
4:38 PM 33.1 °F 22.6 °F 30.0 °F 89% 30.17 in 2.0 mi North 16.1 mph 24.2 mph 0.02 in Snow Light Snow
4:53 PM 33.1 °F 23.0 °F 30.0 °F 89% 30.14 in 2.0 mi North 15.0 mph 24.2 mph 0.02 in Snow Light Snow
4:55 PM 33.1 °F 21.9 °F 30.0 °F 89% 30.18 in 3.0 mi North 18.4 mph 26.5 mph 0.00 in Snow Light Snow
5:11 PM 32.0 °F 22.1 °F 28.9 °F 88% 30.18 in 4.0 mi North 13.8 mph 23.0 mph 0.00 in Snow Light Snow
5:18 PM 32.0 °F 22.5 °F 28.9 °F 88% 30.18 in 9.0 mi North 12.7 mph 23.0 mph 0.00 in   Mostly Cloudy
5:53 PM 32.0 °F 21.2 °F 28.0 °F 85% 30.18 in 10.0 mi NNW 16.1 mph - 0.00 in   Mostly Cloudy
6:53 PM 32.0 °F 23.0 °F 28.0 °F 85% 30.18 in 10.0 mi NW 11.5 mph - N/A   Clear
7:53 PM 33.1 °F 23.9 °F 27.0 °F 78% 30.18 in 10.0 mi NW 12.7 mph 20.7 mph N/A   Partly Cloudy
8:53 PM 32.0 °F 24.2 °F 26.1 °F 79% 30.20 in 10.0 mi NW 9.2 mph - N/A   Partly Cloudy
9:53 PM 32.0 °F 22.5 °F 24.1 °F 73% 30.20 in 10.0 mi NW 12.7 mph - N/A   Partly Cloudy
10:53 PM 28.9 °F 21.9 °F 21.9 °F 75% 30.20 in 10.0 mi WNW 6.9 mph - N/A   Clear
11:53 PM 26.1 °F 16.8 °F 19.9 °F 78% 30.21 in 10.0 mi West 9.2 mph - N/A   Clear